Triddler

Vai direttamente all'ID del puzzle

Scegli i puzzle in base a:
Risolto Question Ordina per
Mostra più filtri >>>
Puzzle per pagina
Pagina N. di 4
Risultato: 61 di 61
ID Descrizione Autore Data Dimensione Punti Popolarità Tempo medio Risolto
14526 Mushroom abuelo52 14/01/17 (5+5)x(5+5)x5 83 64,62% 00:02:14
14488 Snowman ellyf 24/12/16 (20+16)x(14+18)x6 2.675 82,74% 00:29:36
14474 Miss Piggy hertseltsur 19/12/16 (25+25)x(25+25)x2 509.747 87,50% 01:08:51
14475 Fozzie Bear hertseltsur 19/12/16 (25+25)x(25+25)x2 445.882 75,00% 00:52:29
14476 Animal hertseltsur 19/12/16 (25+25)x(25+25)x2 443.359 93,75% 01:36:09
14477 Rowlf the Dog hertseltsur 19/12/16 (25+25)x(25+25)x2 406.450 67,31% 00:46:20
14479 Gonzo hertseltsur 19/12/16 (25+25)x(25+25)x2 302.478 77,50% 01:09:26
14482 Swedish Chef hertseltsur 24/12/16 (25+25)x(25+25)x2 632.770 78,57% 01:38:53
14483 Bunsen Honeydew hertseltsur 24/12/16 (23+27)x(25+19)x2 323.419 63,89% 01:55:02
14484 Floyd Pepper hertseltsur 24/12/16 (25+25)x(25+25)x2 317.946 70,00% 01:51:16
14485 Sam the Eagle hertseltsur 24/12/16 (25+25)x(25+25)x2 248.165 76,67% 00:48:18
14486 Brad Pitt Caricature hertseltsur 24/12/16 (21+27)x(23+27)x2 223.475 34,38% 01:16:22
14487 Burt Reynolds hertseltsur 24/12/16 (25+25)x(25+25)x2 156.581 75,00% 00:43:51
14489 Lisa Simpson hertseltsur 01/01/17 (25+25)x(25+25)x2 645.762 82,61% 00:44:24
14490 Moleman Hans hertseltsur 01/01/17 (25+25)x(25+25)x2 575.052 80,00% 00:58:05
14491 Moe Szyslak hertseltsur 01/01/17 (25+25)x(25+25)x2 536.950 70,00% 00:53:17
14492 Barney Gumble hertseltsur 01/01/17 (25+25)x(25+25)x2 498.522 81,82% 01:15:45
14493 Chief Wiggum hertseltsur 01/01/17 (25+25)x(25+25)x2 478.255 77,50% 00:53:01
14494 Patty Bouvier hertseltsur 01/01/17 (25+25)x(25+25)x2 475.869 62,50% 00:38:19
14495 Seymour Skinner hertseltsur 01/01/17 (25+25)x(25+25)x2 465.921 67,31% 00:41:09
Puzzle per pagina
Pagina N. di 4
Risultato: 61 di 61